sat.trackr.live / text

‹ back to catalog

STARLINK-3293

NORAD 50176 · 2021-125W

PAYLOAD ACTIVE UNKNOWN

§ Identity

Operator
Country
US
Launch date
2021-12-18
Launch site
AFWTR
Launch vehicle
Mass (kg)
RCS (m²)

Purposes: comms

External: N2YO · Heavens-Above · Gunter

§ Orbital elements

Epoch: 2026-05-25T01:30:26.968032Z

Period
95.44 min
Inclination
53.2154°
Eccentricity
0.0001120
Mean motion
15.08835402 rev/d
Perigee alt
539.0 km
Apogee alt
540.5 km
Semi-major
6,917.9 km
B*
-2.9188e-5
RAAN
266.2673°
Arg perigee
84.2866°
Mean anomaly
275.8253°
Rev number
24,817

§ Raw data

STARLINK-32931 50176U 21125W   26145.06281213 -.00000752  00000+0 -29188-4 0  99982 50176  53.2154 266.2673 0001120  84.2866 275.8253 15.08835402248171

JSON: /api/v1/satellites/50176 · /tle

For live sub-satellite position, see the globe view (requires WebGL).

§ Visibility from observer

Set your observer location to see the next 7 days of passes ≥ 10°. The values pass through the URL so the page stays shareable.

No JS? Fill the form by hand. The geolocation button needs JavaScript.